Regional Weather Roundup
Issued by NWS

Home | Current Version | Previous Version | Graphics & Text | Print | Product List | Glossary On
Versions: 1 2 3 4 5 6 7 8 9 10 11 12 13 14 15 16 17 18 19 20 21 22 23 24 25 26 27 28 29 30 31 32 33 34 35 36 37 38 39 40 41 42 43 44 45 46 47 48 49 50
885
ASUS43 KMKX 291100
RWRWI

WISCONSIN REGIONAL WEATHER ROUNDUP
NATIONAL WEATHER SERVICE MILWAUKEE/SULLIVAN WI
600 AM CDT THU SEP 29 2016

NOTE: "FAIR" INDICATES FEW OR NO CLOUDS BELOW 12,000 FEET WITH NO
SIGNIFICANT WEATHER AND/OR OBSTRUCTIONS TO VISIBILITY.

WIZ001-002-006>008-014>016-023>028-291200-
NORTHWEST WISCONSIN

CITY           SKY/WX    TMP DP  RH WIND       PRES   REMARKS
SUPERIOR ARPT  CLOUDY    50  50 100 CALM      30.46S
ASHLAND        CLOUDY    49  48  97 CALM      30.46R
HAYWARD        CLOUDY    51  49  92 NE6       30.45S
SIREN          CLEAR     41  40  97 CALM      30.45R
CUMBERLAND     MOCLDY    46  46 100 CALM      30.44R
RICE LAKE      CLOUDY    50  48  92 NE7       30.45R
CHETEK         NOT AVBL
LADYSMITH      CLEAR     46  46  97 N7        30.44R
EAU CLAIRE     PTCLDY    47  46  97 N8        30.40R
MENOMONIE      CLEAR     46  46  97 NW6       30.41R
NEW RICHMOND   PTCLDY    45  45 100 N6        30.43R
OSCEOLA        FOG       46  46 100 CALM      30.46R VSB 1/4
$$

WIZ003>005-009-010-017-018-291200-
NORTH CENTRAL WISCONSIN

CITY           SKY/WX    TMP DP  RH WIND       PRES   REMARKS
MANITOWISH WTR NOT AVBL
ARBOR VITAE    PTCLDY    50  49  96 NE5       30.41S
WOODRUFF       PTCLDY    50  49  96 NE5       30.41S
RHINELANDER    CLOUDY    47  47 100 N6        30.42R FOG
EAGLE RIVER    CLOUDY    48  48 100 N9        30.42R FOG
LAND O LAKES   FOG       48  48 100 N7        30.44R VSB 3/4
PHILLIPS       CLEAR     45  45 100 N3        30.41R
TOMAHAWK       CLOUDY    46  45  97 CALM      30.41R FOG
MEDFORD        CLEAR    N/A N/A N/A NE5       30.39R
MERRILL        CLEAR     45  45 100 NW3       30.39R
$$

WIZ029-030-035-036-043>047-291200-
CENTRAL WISCONSIN

CITY           SKY/WX    TMP DP  RH WIND       PRES   REMARKS
WAUSAU         CLEAR     48  46  93 N5        30.36R
MOSINEE        CLEAR     48  48 100 N10       30.37R
MARSHFIELD     CLEAR     49  45  86 N7        30.36R
STEVENS POINT  CLEAR     46  46 100 N6        30.35R
WAUPACA        CLEAR     51  50  95 N5        30.32S
WAUTOMA        CLEAR     51  48  89 N8        30.31R
WISC RAPIDS    CLEAR     49  48  97 N9        30.35S
CAMP DOUGLAS   NOT AVBL
$$

WIZ011>013-019>022-031-037>040-048>050-291200-
NORTHEAST WISCONSIN

CITY           SKY/WX    TMP DP  RH WIND       PRES   REMARKS
ANTIGO         CLEAR     45  45 100 CALM      30.37S
SHAWANO        CLEAR     52  49  90 N7        30.34R
OCONTO         NOT AVBL
STURGEON BAY   CLEAR     57  54  89 N7        30.32R
GREEN BAY      MOCLDY    51  51 100 N8        30.31R
MANITOWOC      MOCLDY    57  54  88 MISG      30.27R
APPLETON       PTCLDY    50  50 100 N10       30.29R
CLINTONVILLE   CLEAR     52  48  87 N7        30.32R
OSHKOSH        CLOUDY    54  51  90 N15G22    30.29R
$$

WIZ032>034-041-042-053>061-291200-
SOUTHWEST WISCONSIN

CITY           SKY/WX    TMP DP  RH WIND       PRES   REMARKS
LA CROSSE      CLEAR     51  49  92 N5        30.37R
SPARTA         PTCLDY    44  44 100 CALM      30.37R
VIROQUA        CLEAR     49  49 100 N9        30.34S
BOSCOBEL       CLEAR     48  47  96 CALM      30.33R FOG
PRAIRIE DU CHI CLEAR     51  48  90 CALM      30.32R
PLATTEVILLE    CLEAR     51  51 100 N9        30.28R
$$

WIZ056-057-062-063-064-067-068-291200-
SOUTH CENTRAL WISCONSIN

CITY           SKY/WX    TMP DP  RH WIND       PRES   REMARKS
REEDSBURG      NOT AVBL
BARABOO/DELLS  CLEAR     48  47  94 N3        30.30R
LONE ROCK      NOT AVBL
MINERAL POINT  CLEAR     52  50  93 N8        30.27S
MADISON        PTCLDY    52  50  93 N14       30.26R
MIDDLETON      MOCLDY    53  53  99 N10G17    30.27S
WATERTOWN      CLOUDY    54  54 100 N10       30.24R
MONROE         CLOUDY    52  50  93 N9G24     30.24R
JANESVILLE     CLOUDY    57  54  88 N14G23    30.21R
$$

WIZ051-052-058>065-066-070>072-291200-
SOUTHEAST WISCONSIN

CITY           SKY/WX    TMP DP  RH WIND       PRES   REMARKS
MILWAUKEE      PTCLDY    60  56  86 N22G33    30.19R
WAUKESHA       CLOUDY    55  54  94 N21       30.22R
MILWAUKEE/TIMM MOCLDY    57  52  82 N15G24    30.21R
RACINE         CLOUDY    57  55  93 N18G28    30.18R
BURLINGTON     CLOUDY    58  53  84 N13G26    30.19R
KENOSHA        PTCLDY    59  56  89 N15G24    30.16S
FOND DU LAC    CLOUDY    56  52  86 N13G22    30.28S
SHEBOYGAN      MOCLDY    56  53  90 N8        30.25R
WEST BEND      CLOUDY    55  52  88 N10       30.24R
JUNEAU         CLOUDY    53  51  94 N15       30.27R
$$

LSZ147-162-291200-
LAKE SUPERIOR

STATION/POSITION TIME  TEMP    WIND        PRES    WAVE
                       AIR SEA DIR/SP/G            HT/PER
                 (UTC) (F)     (DEG/KT/KT) (MB)    (FT/S)
W MID LAKE BUOY  0950   55 54   20/ 12/ 14 1031.0R   1/ 3
DEVILS ISLAND    1000   53      40/ 12/ 13 1031.8R
SAXON HARBOR     1000   56      40/ 11/ 14 1030.5R
$$

LMZ867-665-643>646-291200-
LAKE MICHIGAN

STATION/POSITION TIME  TEMP    WIND        PRES    WAVE
                       AIR SEA DIR/SP/G            HT/PER
                 (UTC) (F)     (DEG/KT/KT) (MB)    (FT/S)
CHAMBERS ISLAND  1000   60     360/ 18/ 22 1025.7S
N MID LAKE BUOY  0950   63 66   10/ 17/ 21 1025.4R   3/ 5
NORTHPORT PIER   1000   60      20/ 11/ 16 1026.4R
SISTER BAY       0908   58      20/ 13/ 18   N/A
KEWAUNEE LAKESHO 1000   58     360/  9/ 14 1024.5R
SHEBOYGAN LAKESH 1000   57     350/ 22/ 25 1023.2R
PORT WASHINGTON  1000   60     350/  9/ 17 1023.4R
ATWATER BUOY     1000   56 53   20/ 21/ 27 1021.6R
MILWAUKEE LAKESH 1010   58     360/ 23/ 30   N/A
S MID LAKE BUOY  0950   65 69   50/ 23/ 29 1018.6R   7/ 7
KENOSHA   LAKESH 1000   58     360/ 23/ 26 1020.3R
$$

TC  - TEMPERATURE IN CELSIUS
VSB - VISIBILITY IN STATUTE MILES
WCI - WIND CHILL INDEX
HX  - HEAT INDEX





USA.gov is the U.S. government's official web portal to all federal, state and local government web resources and services.